,,,PA_Meas_PMT16A,,PR_Meas_QMR101_102,,RH_Meas_QMH101,,SR_Meas_QMS101,,TA_Meas_QMH101,,GenWind,,GenWind,
date,time,status,PA,status,PR,status,RH,status,SR,status,TA,status,DirAvg,status,SpdAvg,
2008-12-12, 00:00:04,VALID,1001.52,VALID,0,VALID,91.394,VALID,0,VALID,24.3459,VALID,9,VALID,0.569141,
2008-12-12, 00:01:04,VALID,1001.51,VALID,0,VALID,91.4245,VALID,0,VALID,24.3246,VALID,9,VALID,0.525391,
2008-12-12, 00:02:04,VALID,1001.5,VALID,0,VALID,91.4703,VALID,0,VALID,24.3636,VALID,355,VALID,0.275,
2008-12-12, 00:03:04,VALID,1001.44,VALID,0,VALID,91.1041,VALID,0,VALID,24.4025,VALID,302,VALID,0.591016,
2008-12-12, 00:04:04,VALID,1001.4,VALID,0,VALID,90.8295,VALID,0,VALID,24.4822,VALID,291,VALID,0.320313,
2008-12-12, 00:05:04,VALID,1001.38,VALID,0,VALID,90.4099,VALID,0,VALID,24.5601,VALID,287,VALID,0.255078,
2008-12-12, 00:06:04,VALID,1001.4,VALID,0,VALID,90.1352,VALID,0,VALID,24.638,VALID,287,VALID,0.0929687,
2008-12-12, 00:07:04,VALID,1001.4,VALID,0,VALID,89.8682,VALID,0,VALID,24.6769,VALID,287,VALID,0.254297,
2008-12-12, 00:08:04,VALID,1001.38,VALID,0,VALID,89.5783,VALID,0.100563,VALID,24.7548,VALID,287,VALID,0,
2008-12-12, 00:09:04,VALID,1001.41,VALID,0,VALID,89.2884,VALID,0,VALID,24.8132,VALID,287,VALID,0.219922,
2008-12-12, 00:10:04,VALID,1001.41,VALID,0,VALID,88.8612,VALID,0,VALID,24.8911,VALID,287,VALID,0.136719,
2008-12-12, 00:11:04,VALID,1001.4,VALID,0,VALID,88.4035,VALID,0,VALID,24.9495,VALID,295,VALID,0.428516,
2008-12-12, 00:12:04,VALID,1001.37,VALID,0,VALID,88.3119,VALID,0,VALID,24.9671,VALID,270,VALID,0.157031,
2008-12-12, 00:13:04,VALID,1001.41,VALID,0,VALID,87.6329,VALID,0,VALID,25.0469,VALID,312,VALID,0.445313,
2008-12-12, 00:14:04,VALID,1001.38,VALID,0,VALID,87.0989,VALID,0,VALID,25.1637,VALID,11,VALID,0.416797,
2008-12-12, 00:15:04,VALID,1001.34,VALID,0,VALID,86.687,VALID,0,VALID,25.2416,VALID,346,VALID,0.501562,
2008-12-12, 00:16:04,VALID,1001.31,VALID,0,VALID,86.4962,VALID,0,VALID,25.3,VALID,346,VALID,0.297266,
2008-12-12, 00:17:04,VALID,1001.24,VALID,0,VALID,86.3818,VALID,0,VALID,25.339,VALID,347,VALID,0.409375,
2008-12-12, 00:18:04,VALID,1001.2,VALID,0,VALID,86.3818,VALID,0,VALID,25.3584,VALID,346,VALID,0.332422,
2008-12-12, 00:19:04,VALID,1001.16,VALID,0,VALID,86.3055,VALID,0,VALID,25.3584,VALID,346,VALID,0.359766,
2008-12-12, 00:20:04,VALID,1001.16,VALID,0,VALID,86.4505,VALID,0,VALID,25.3779,VALID,345,VALID,0,
2008-12-12, 00:21:04,VALID,1001.16,VALID,0,VALID,86.2521,VALID,0,VALID,25.376,VALID,294,VALID,0.979297,
2008-12-12, 00:22:04,VALID,1001.14,VALID,0,VALID,86.4047,VALID,0,VALID,25.3974,VALID,310,VALID,0.139844,
2008-12-12, 00:23:04,VALID,1001.11,VALID,0,VALID,86.2826,VALID,0,VALID,25.3974,VALID,251,VALID,0.745703,
2008-12-12, 00:24:04,VALID,1001.09,VALID,0,VALID,86.0309,VALID,0,VALID,25.4363,VALID,351,VALID,1.49805,
2008-12-12, 00:25:04,VALID,1001.06,VALID,0,VALID,85.7334,VALID,0,VALID,25.4325,VALID,342,VALID,0.834375,
2008-12-12, 00:26:04,VALID,1001.03,VALID,0,VALID,85.6571,VALID,0.100563,VALID,25.5142,VALID,350,VALID,0.494531,
2008-12-12, 00:27:04,VALID,1001.03,VALID,0,VALID,85.5198,VALID,0,VALID,25.5142,VALID,347,VALID,0.815625,
2008-12-12, 00:28:04,VALID,1000.98,VALID,0,VALID,85.3214,VALID,0.100563,VALID,25.5142,VALID,312,VALID,0.903125,
2008-12-12, 00:29:04,VALID,1000.95,VALID,0,VALID,85.207,VALID,0,VALID,25.5337,VALID,342,VALID,0.460547,
2008-12-12, 00:30:04,VALID,1000.94,VALID,0,VALID,85.3519,VALID,0,VALID,25.5337,VALID,342,VALID,0.513672,
2008-12-12, 00:31:04,VALID,1000.91,VALID,0,VALID,85.2604,VALID,0,VALID,25.5337,VALID,310,VALID,0.415234,
2008-12-12, 00:32:04,VALID,1000.92,VALID,0,VALID,85.3977,VALID,0,VALID,25.5123,VALID,322,VALID,0.390625,
2008-12-12, 00:33:04,VALID,1000.9,VALID,0,VALID,85.2527,VALID,0,VALID,25.5337,VALID,354,VALID,0.529297,
2008-12-12, 00:34:04,VALID,1000.91,VALID,0,VALID,85.2299,VALID,0,VALID,25.5532,VALID,328,VALID,0.473047,
2008-12-12, 00:35:04,VALID,1000.86,VALID,0,VALID,85.3138,VALID,0,VALID,25.5551,VALID,353,VALID,0.425781,
2008-12-12, 00:36:04,VALID,1000.83,VALID,0,VALID,85.2375,VALID,0,VALID,25.5532,VALID,347,VALID,0.489062,
2008-12-12, 00:37:04,VALID,1000.81,VALID,0,VALID,85.3138,VALID,0,VALID,25.5727,VALID,354,VALID,0.628516,
2008-12-12, 00:38:04,VALID,1000.82,VALID,0,VALID,85.3977,VALID,0,VALID,25.5532,VALID,332,VALID,0.659766,
2008-12-12, 00:39:04,VALID,1000.81,VALID,0,VALID,85.5274,VALID,0,VALID,25.5532,VALID,350,VALID,0.651172,
2008-12-12, 00:40:04,VALID,1000.82,VALID,0,VALID,85.4511,VALID,0,VALID,25.5532,VALID,349,VALID,0.697266,
2008-12-12, 00:41:04,VALID,1000.81,VALID,0,VALID,85.6342,VALID,0,VALID,25.5532,VALID,354,VALID,0.464453,
2008-12-12, 00:42:04,VALID,1000.8,VALID,0,VALID,85.7028,VALID,0,VALID,25.5532,VALID,354,VALID,0.301172,
2008-12-12, 00:43:04,VALID,1000.77,VALID,0,VALID,85.802,VALID,0,VALID,25.5551,VALID,354,VALID,0,
2008-12-12, 00:44:04,VALID,1000.75,VALID,0,VALID,85.7868,VALID,0,VALID,25.5142,VALID,3,VALID,0.667969,
2008-12-12, 00:45:04,VALID,1000.75,VALID,0,VALID,85.8173,VALID,0,VALID,25.5337,VALID,304,VALID,0.316406,
2008-12-12, 00:46:04,VALID,1000.71,VALID,0,VALID,85.7639,VALID,0,VALID,25.5746,VALID,341,VALID,0.894141,
2008-12-12, 00:47:04,VALID,1000.68,VALID,0,VALID,85.7334,VALID,0,VALID,25.5532,VALID,357,VALID,0.6125,
2008-12-12, 00:48:04,VALID,1000.68,VALID,0,VALID,85.6723,VALID,0,VALID,25.5727,VALID,347,VALID,0.730859,
2008-12-12, 00:49:04,VALID,1000.63,VALID,0,VALID,85.7181,VALID,0,VALID,25.6311,VALID,356,VALID,0.815234,
2008-12-12, 00:50:04,VALID,1000.65,VALID,0,VALID,85.6952,VALID,0,VALID,25.6311,VALID,340,VALID,0.482812,
2008-12-12, 00:51:04,VALID,1000.63,VALID,0,VALID,85.6266,VALID,0,VALID,25.6506,VALID,333,VALID,0.438281,
2008-12-12, 00:52:05,VALID,1000.6,VALID,0,VALID,85.6723,VALID,0,VALID,25.6486,VALID,351,VALID,0.638281,
2008-12-12, 00:53:05,VALID,1000.61,VALID,0,VALID,85.7334,VALID,0,VALID,25.67,VALID,32,VALID,0.398828,
2008-12-12, 00:54:05,VALID,1000.61,VALID,0,VALID,85.6952,VALID,0,VALID,25.6895,VALID,339,VALID,0.601563,
2008-12-12, 00:55:05,VALID,1000.59,VALID,0,VALID,85.7105,VALID,0,VALID,25.6895,VALID,306,VALID,0.655469,
2008-12-12, 00:56:05,VALID,1000.56,VALID,0,VALID,85.7791,VALID,0,VALID,25.709,VALID,359,VALID,0.896094,
2008-12-12, 00:57:05,VALID,1000.59,VALID,0,VALID,85.4435,VALID,0,VALID,25.7499,VALID,357,VALID,1.45898,
2008-12-12, 00:58:05,VALID,1000.59,VALID,0,VALID,85.4358,VALID,0,VALID,25.7674,VALID,334,VALID,0.734766,
2008-12-12, 00:59:05,VALID,1000.59,VALID,0,VALID,85.4206,VALID,0,VALID,25.7869,VALID,355,VALID,0.491016,
2008-12-12, 01:00:05,VALID,1000.6,VALID,0,VALID,85.5655,VALID,0,VALID,25.7889,VALID,357,VALID,0.207031,
2008-12-12, 01:01:05,VALID,1000.59,VALID,0,VALID,85.3672,VALID,0,VALID,25.7889,VALID,355,VALID,0.250391,
2008-12-12, 01:02:05,VALID,1000.59,VALID,0,VALID,85.3138,VALID,0,VALID,25.7674,VALID,326,VALID,0.623828,
2008-12-12, 01:03:05,VALID,1000.57,VALID,0,VALID,85.2299,VALID,0,VALID,25.7869,VALID,355,VALID,0.530078,
2008-12-12, 01:04:05,VALID,1000.57,VALID,0,VALID,85.2604,VALID,0,VALID,25.8064,VALID,314,VALID,0.362109,
2008-12-12, 01:05:05,VALID,1000.57,VALID,0,VALID,85.2604,VALID,0,VALID,25.8083,VALID,41,VALID,1.0625,
2008-12-12, 01:06:05,VALID,1000.58,VALID,0,VALID,85.2451,VALID,0,VALID,25.8453,VALID,50,VALID,0.795703,
2008-12-12, 01:07:05,VALID,1000.56,VALID,0,VALID,85.0696,VALID,0,VALID,25.8453,VALID,33,VALID,0.567578,
2008-12-12, 01:08:05,VALID,1000.55,VALID,0,VALID,85.2604,VALID,0,VALID,25.8453,VALID,8,VALID,0.642969,
2008-12-12, 01:09:05,VALID,1000.54,VALID,0,VALID,85.0468,VALID,0,VALID,25.8453,VALID,340,VALID,0.893359,
2008-12-12, 01:10:05,VALID,1000.53,VALID,0,VALID,85.0162,VALID,0,VALID,25.8453,VALID,336,VALID,0.76875,
2008-12-12, 01:11:05,VALID,1000.54,VALID,0,VALID,84.8713,VALID,0.100563,VALID,25.8863,VALID,352,VALID,0.89375,
2008-12-12, 01:12:05,VALID,1000.56,VALID,0,VALID,84.7492,VALID,0,VALID,25.9057,VALID,343,VALID,0.547656,
2008-12-12, 01:13:05,VALID,1000.54,VALID,0,VALID,84.7416,VALID,0,VALID,25.8843,VALID,288,VALID,1.50078,
2008-12-12, 01:14:05,VALID,1000.53,VALID,0,VALID,84.3373,VALID,0,VALID,25.9252,VALID,329,VALID,0.8625,
2008-12-12, 01:15:05,VALID,1000.55,VALID,0,VALID,84.2457,VALID,0,VALID,25.9642,VALID,302,VALID,0.471484,
2008-12-12, 01:16:05,VALID,1000.51,VALID,0,VALID,84.0474,VALID,0,VALID,25.9427,VALID,332,VALID,0.85,
2008-12-12, 01:17:05,VALID,1000.47,VALID,0,VALID,83.8872,VALID,0,VALID,25.9622,VALID,8,VALID,0.878516,
2008-12-12, 01:18:05,VALID,1000.47,VALID,0,VALID,84.0779,VALID,0,VALID,25.9817,VALID,349,VALID,0.613281,
2008-12-12, 01:19:05,VALID,1000.46,VALID,0,VALID,83.8948,VALID,0,VALID,25.9817,VALID,331,VALID,1.01133,
2008-12-12, 01:20:05,VALID,1000.49,VALID,0,VALID,84.0703,VALID,0,VALID,26.0031,VALID,353,VALID,1.20156,
2008-12-12, 01:21:05,VALID,1000.49,VALID,0,VALID,84.0397,VALID,0,VALID,26.0421,VALID,341,VALID,0.468359,
2008-12-12, 01:22:05,VALID,1000.48,VALID,0,VALID,84.0474,VALID,0,VALID,25.9817,VALID,352,VALID,0.756641,
2008-12-12, 01:23:05,VALID,1000.46,VALID,0,VALID,83.849,VALID,0,VALID,26.0031,VALID,356,VALID,1.12266,
2008-12-12, 01:24:05,VALID,1000.46,VALID,0,VALID,83.8414,VALID,0,VALID,26.0012,VALID,342,VALID,0.916406,
2008-12-12, 01:25:05,VALID,1000.46,VALID,0,VALID,83.9253,VALID,0,VALID,26.0012,VALID,338,VALID,0.684766,
2008-12-12, 01:26:05,VALID,1000.44,VALID,0,VALID,83.8872,VALID,0,VALID,25.9602,VALID,356,VALID,0.653516,
2008-12-12, 01:27:05,VALID,1000.48,VALID,0,VALID,83.9177,VALID,0,VALID,25.9622,VALID,325,VALID,0.646094,
2008-12-12, 01:28:05,VALID,1000.47,VALID,0,VALID,83.9177,VALID,0,VALID,25.9408,VALID,327,VALID,0.727734,
2008-12-12, 01:29:05,VALID,1000.46,VALID,0,VALID,83.9482,VALID,0,VALID,25.9622,VALID,312,VALID,0.425,
2008-12-12, 01:30:05,VALID,1000.46,VALID,0,VALID,84.322,VALID,0,VALID,25.9427,VALID,320,VALID,0.297656,
2008-12-12, 01:31:05,VALID,1000.44,VALID,0,VALID,84.1313,VALID,0,VALID,25.9427,VALID,348,VALID,1.07891,
2008-12-12, 01:32:05,VALID,1000.46,VALID,0,VALID,84.0169,VALID,0,VALID,25.9213,VALID,302,VALID,0.823047,
2008-12-12, 01:33:05,VALID,1000.45,VALID,0,VALID,84.1084,VALID,0,VALID,25.9447,VALID,330,VALID,0.451953,
2008-12-12, 01:34:05,VALID,1000.46,VALID,0,VALID,83.7117,VALID,0,VALID,25.9232,VALID,337,VALID,1.46836,
2008-12-12, 01:35:05,VALID,1000.48,VALID,0,VALID,83.849,VALID,0,VALID,25.9642,VALID,327,VALID,0.674219,
2008-12-12, 01:36:05,VALID,1000.48,VALID,0,VALID,84.0321,VALID,0,VALID,25.9427,VALID,272,VALID,0.512109,
2008-12-12, 01:37:05,VALID,1000.49,VALID,0,VALID,83.9177,VALID,0,VALID,25.9447,VALID,352,VALID,0.397266,
2008-12-12, 01:38:05,VALID,1000.52,VALID,0,VALID,84.0779,VALID,0,VALID,25.9447,VALID,360,VALID,0.379687,
2008-12-12, 01:39:05,VALID,1000.5,VALID,0,VALID,84.1923,VALID,0,VALID,25.9213,VALID,358,VALID,0.307422,
2008-12-12, 01:40:05,VALID,1000.51,VALID,0,VALID,84.1389,VALID,0,VALID,25.9232,VALID,279,VALID,0.469531,
2008-12-12, 01:41:05,VALID,1000.55,VALID,0,VALID,84.1389,VALID,0,VALID,25.9447,VALID,351,VALID,0.392188,
2008-12-12, 01:42:05,VALID,1000.54,VALID,0,VALID,84.0245,VALID,0,VALID,25.9232,VALID,358,VALID,1.39922,
2008-12-12, 01:43:05,VALID,1000.52,VALID,0,VALID,84.0397,VALID,0,VALID,25.9232,VALID,10,VALID,1.06836,
2008-12-12, 01:44:05,VALID,1000.55,VALID,0,VALID,83.8948,VALID,0,VALID,25.9232,VALID,349,VALID,1.55586,
2008-12-12, 01:45:05,VALID,1000.52,VALID,0,VALID,84.2228,VALID,0,VALID,25.9232,VALID,345,VALID,0.339063,
2008-12-12, 01:46:05,VALID,1000.54,VALID,0,VALID,84.3449,VALID,0,VALID,25.9232,VALID,346,VALID,0.853906,
2008-12-12, 01:47:05,VALID,1000.55,VALID,0,VALID,84.2839,VALID,0,VALID,25.8843,VALID,354,VALID,0.519922,
2008-12-12, 01:48:05,VALID,1000.55,VALID,0,VALID,84.2381,VALID,0,VALID,25.8863,VALID,356,VALID,0.998828,
2008-12-12, 01:49:05,VALID,1000.52,VALID,0,VALID,84.5204,VALID,0,VALID,25.8453,VALID,3,VALID,0.491406,
2008-12-12, 01:50:05,VALID,1000.55,VALID,0,VALID,84.5738,VALID,0,VALID,25.8453,VALID,349,VALID,0.522266,
2008-12-12, 01:51:05,VALID,1000.58,VALID,0,VALID,84.5967,VALID,0,VALID,25.8064,VALID,338,VALID,0.472656,
2008-12-12, 01:52:05,VALID,1000.58,VALID,0,VALID,84.5433,VALID,0,VALID,25.8259,VALID,345,VALID,1.03867,
2008-12-12, 01:53:05,VALID,1000.61,VALID,0,VALID,84.6958,VALID,0,VALID,25.8473,VALID,354,VALID,0.286328,
2008-12-12, 01:54:05,VALID,1000.64,VALID,0,VALID,84.7569,VALID,0,VALID,25.8064,VALID,354,VALID,0.021875,
2008-12-12, 01:55:05,VALID,1000.7,VALID,0,VALID,84.8637,VALID,0,VALID,25.8259,VALID,15,VALID,0.848047,
2008-12-12, 01:56:05,VALID,1000.76,VALID,0,VALID,84.6958,VALID,0,VALID,25.8259,VALID,351,VALID,0.689844,
2008-12-12, 01:57:05,VALID,1000.75,VALID,0,VALID,84.856,VALID,0,VALID,25.8259,VALID,3,VALID,0.545703,
2008-12-12, 01:58:05,VALID,1000.78,VALID,0,VALID,84.9171,VALID,0,VALID,25.8064,VALID,8,VALID,0.261328,
2008-12-12, 01:59:05,VALID,1000.8,VALID,0,VALID,84.8789,VALID,0,VALID,25.7674,VALID,10,VALID,0.353906,
2008-12-12, 02:00:05,VALID,1000.83,VALID,0,VALID,85.1612,VALID,0,VALID,25.7889,VALID,10,VALID,0.286328,
2008-12-12, 02:01:05,VALID,1000.81,VALID,0,VALID,85.207,VALID,0,VALID,25.7285,VALID,11,VALID,0.0621094,
2008-12-12, 02:02:05,VALID,1000.85,VALID,0,VALID,85.5198,VALID,0,VALID,25.6895,VALID,11,VALID,0.00273437,
2008-12-12, 02:03:05,VALID,1000.87,VALID,0,VALID,85.5884,VALID,0,VALID,25.6506,VALID,11,VALID,0.337109,
2008-12-12, 02:04:05,VALID,1000.84,VALID,0,VALID,85.7562,VALID,0,VALID,25.6311,VALID,11,VALID,0.205078,
2008-12-12, 02:05:05,VALID,1000.87,VALID,0,VALID,86.1453,VALID,0,VALID,25.633,VALID,15,VALID,0.130469,
2008-12-12, 02:06:05,VALID,1000.85,VALID,0,VALID,86.1987,VALID,0,VALID,25.5727,VALID,347,VALID,0.213672,
2008-12-12, 02:07:05,VALID,1000.89,VALID,0,VALID,86.4886,VALID,0,VALID,25.5532,VALID,347,VALID,0.122266,
2008-12-12, 02:08:05,VALID,1000.88,VALID,0,VALID,86.5954,VALID,0,VALID,25.5142,VALID,347,VALID,0,
2008-12-12, 02:09:05,VALID,1000.89,VALID,0,VALID,86.7785,VALID,0,VALID,25.5357,VALID,349,VALID,0.434766,
2008-12-12, 02:10:05,VALID,1000.91,VALID,0,VALID,86.8929,VALID,0,VALID,25.4967,VALID,21,VALID,0.115625,
2008-12-12, 02:11:05,VALID,1000.89,VALID,0,VALID,87.076,VALID,0,VALID,25.4558,VALID,25,VALID,0.118359,
2008-12-12, 02:12:05,VALID,1000.84,VALID,0,VALID,87.076,VALID,0,VALID,25.4169,VALID,25,VALID,0.318359,
2008-12-12, 02:13:05,VALID,1000.86,VALID,0,VALID,87.1371,VALID,0,VALID,25.3993,VALID,30,VALID,0.276953,
2008-12-12, 02:14:05,VALID,1000.86,VALID,0,VALID,87.3583,VALID,0,VALID,25.3195,VALID,30,VALID,0.191797,
2008-12-12, 02:15:05,VALID,1000.84,VALID,0,VALID,87.5185,VALID,0,VALID,25.2806,VALID,30,VALID,0.164453,
2008-12-12, 02:16:05,VALID,1000.85,VALID,0,VALID,87.7092,VALID,0,VALID,25.263,VALID,30,VALID,0,
2008-12-12, 02:17:05,VALID,1000.87,VALID,0,VALID,87.9,VALID,0,VALID,25.2027,VALID,30,VALID,0.393359,
2008-12-12, 02:18:05,VALID,1000.86,VALID,0,VALID,88.0831,VALID,0,VALID,25.1851,VALID,30,VALID,0.227734,
2008-12-12, 02:19:05,VALID,1000.88,VALID,0,VALID,88.2967,VALID,0,VALID,25.1656,VALID,30,VALID,0.0484375,
2008-12-12, 02:20:05,VALID,1000.88,VALID,0,VALID,88.6171,VALID,0,VALID,25.1461,VALID,29,VALID,0.420703,
2008-12-12, 02:21:05,VALID,1000.86,VALID,0,VALID,88.5637,VALID,0,VALID,25.1832,VALID,31,VALID,0.35625,
2008-12-12, 02:22:05,VALID,1000.84,VALID,0,VALID,88.3882,VALID,0,VALID,25.224,VALID,31,VALID,0.307813,
2008-12-12, 02:23:05,VALID,1000.87,VALID,0,VALID,88.2433,VALID,0,VALID,25.2027,VALID,31,VALID,0.108984,
2008-12-12, 02:24:05,VALID,1000.87,VALID,0,VALID,88.2433,VALID,0,VALID,25.2046,VALID,34,VALID,0.623047,
2008-12-12, 02:25:05,VALID,1000.86,VALID,0,VALID,88.3119,VALID,0.100563,VALID,25.1618,VALID,34,VALID,0.527344,
2008-12-12, 02:26:05,VALID,1000.84,VALID,0,VALID,88.4416,VALID,0.100563,VALID,25.1423,VALID,34,VALID,0.5,
2008-12-12, 02:27:05,VALID,1000.84,VALID,0,VALID,88.3958,VALID,0.100563,VALID,25.1423,VALID,50,VALID,0.862109,
2008-12-12, 02:28:05,VALID,1000.8,VALID,0,VALID,88.3729,VALID,0.100563,VALID,25.1404,VALID,23,VALID,0.603516,
2008-12-12, 02:29:05,VALID,1000.81,VALID,0,VALID,88.3882,VALID,0.201126,VALID,25.1423,VALID,27,VALID,0.309766,
2008-12-12, 02:30:05,VALID,1000.81,VALID,0,VALID,88.4569,VALID,0.100563,VALID,25.1248,VALID,27,VALID,0.284766,
2008-12-12, 02:31:05,VALID,1000.81,VALID,0,VALID,88.5484,VALID,0.100563,VALID,25.1034,VALID,26,VALID,0.510938,
2008-12-12, 02:32:05,VALID,1000.76,VALID,0,VALID,88.5866,VALID,0.100563,VALID,25.0839,VALID,26,VALID,0.210547,
2008-12-12, 02:33:05,VALID,1000.76,VALID,0,VALID,88.64,VALID,0.100563,VALID,25.1034,VALID,49,VALID,0.312891,
2008-12-12, 02:34:05,VALID,1000.75,VALID,0,VALID,88.7315,VALID,0.201126,VALID,25.0839,VALID,49,VALID,0,
2008-12-12, 02:35:05,VALID,1000.76,VALID,0,VALID,88.8536,VALID,0.100563,VALID,25.0644,VALID,49,VALID,0.025,
2008-12-12, 02:36:05,VALID,1000.72,VALID,0,VALID,88.9222,VALID,0.100563,VALID,25.0041,VALID,49,VALID,0,
2008-12-12, 02:37:05,VALID,1000.69,VALID,0,VALID,89.0138,VALID,0.100563,VALID,25.006,VALID,49,VALID,0.349219,
2008-12-12, 02:38:05,VALID,1000.68,VALID,0,VALID,89.0672,VALID,0.201126,VALID,25.006,VALID,49,VALID,0.186719,
2008-12-12, 02:39:05,VALID,1000.7,VALID,0,VALID,89.1358,VALID,0.100563,VALID,24.9866,VALID,49,VALID,0.367188,
2008-12-12, 02:40:05,VALID,1000.69,VALID,0,VALID,89.1358,VALID,0,VALID,24.9885,VALID,49,VALID,0.382031,
2008-12-12, 02:41:05,VALID,1000.71,VALID,0,VALID,89.2579,VALID,0.100563,VALID,24.9885,VALID,50,VALID,0.163672,
2008-12-12, 02:42:05,VALID,1000.73,VALID,0,VALID,89.2884,VALID,0.100563,VALID,24.9671,VALID,50,VALID,0,
2008-12-12, 02:43:05,VALID,1000.75,VALID,0,VALID,89.2655,VALID,0.100563,VALID,24.9282,VALID,50,VALID,0.432031,
2008-12-12, 02:44:05,VALID,1000.76,VALID,0,VALID,89.3418,VALID,0,VALID,24.9282,VALID,50,VALID,0.0308594,
2008-12-12, 02:45:05,VALID,1000.74,VALID,0,VALID,89.4105,VALID,0,VALID,24.9282,VALID,50,VALID,0.0210938,
2008-12-12, 02:46:05,VALID,1000.72,VALID,0,VALID,89.5783,VALID,0,VALID,24.9106,VALID,50,VALID,0.500781,
2008-12-12, 02:47:05,VALID,1000.69,VALID,0,VALID,89.7004,VALID,0,VALID,24.8911,VALID,50,VALID,0.158984,
2008-12-12, 02:48:05,VALID,1000.71,VALID,0,VALID,89.8606,VALID,0,VALID,24.8716,VALID,50,VALID,0.222266,
2008-12-12, 02:49:05,VALID,1000.68,VALID,0,VALID,89.9903,VALID,0.100563,VALID,24.8327,VALID,50,VALID,0.445703,
2008-12-12, 02:50:05,VALID,1000.63,VALID,0,VALID,90.3717,VALID,0,VALID,24.7937,VALID,50,VALID,0.378516,
2008-12-12, 02:51:05,VALID,1000.58,VALID,0,VALID,90.4862,VALID,0.100563,VALID,24.7548,VALID,50,VALID,0.317578,
2008-12-12, 02:52:05,VALID,1000.57,VALID,0,VALID,90.593,VALID,0,VALID,24.7159,VALID,50,VALID,0.144141,
2008-12-12, 02:53:05,VALID,1000.54,VALID,0,VALID,90.6158,VALID,0,VALID,24.6964,VALID,50,VALID,0.35,
2008-12-12, 02:54:05,VALID,1000.54,VALID,0,VALID,90.7532,VALID,0,VALID,24.6769,VALID,31,VALID,0.322656,
2008-12-12, 02:55:05,VALID,1000.53,VALID,0,VALID,90.9668,VALID,0,VALID,24.6574,VALID,20,VALID,0.416016,
2008-12-12, 02:56:05,VALID,1000.52,VALID,0,VALID,91.2033,VALID,0,VALID,24.6574,VALID,20,VALID,0.448047,
2008-12-12, 02:57:05,VALID,1000.53,VALID,0,VALID,91.3177,VALID,0.100563,VALID,24.5972,VALID,20,VALID,0.386719,
2008-12-12, 02:58:05,VALID,1000.5,VALID,0,VALID,91.455,VALID,0,VALID,24.6185,VALID,17,VALID,0.495703,
2008-12-12, 02:59:05,VALID,1000.5,VALID,0,VALID,91.5008,VALID,0,VALID,24.599,VALID,16,VALID,0.50625,
2008-12-12, 03:00:05,VALID,1000.49,VALID,0,VALID,91.5161,VALID,0,VALID,24.6185,VALID,11,VALID,0.476172,
2008-12-12, 03:01:05,VALID,1000.47,VALID,0,VALID,91.4932,VALID,0,VALID,24.6166,VALID,359,VALID,0.719531,
2008-12-12, 03:02:05,VALID,1000.45,VALID,0,VALID,91.4626,VALID,0,VALID,24.638,VALID,345,VALID,0.502734,
2008-12-12, 03:03:05,VALID,1000.44,VALID,0,VALID,91.4779,VALID,0,VALID,24.6788,VALID,345,VALID,0.573047,
2008-12-12, 03:04:05,VALID,1000.43,VALID,0,VALID,91.5466,VALID,0,VALID,24.6593,VALID,345,VALID,0.596484,
2008-12-12, 03:05:05,VALID,1000.39,VALID,0,VALID,91.5695,VALID,0,VALID,24.6398,VALID,345,VALID,0.623828,
2008-12-12, 03:06:05,VALID,1000.39,VALID,0,VALID,91.6457,VALID,0,VALID,24.599,VALID,348,VALID,0.562109,
2008-12-12, 03:07:05,VALID,1000.36,VALID,0,VALID,91.6076,VALID,0,VALID,24.599,VALID,349,VALID,0.772266,
2008-12-12, 03:08:05,VALID,1000.36,VALID,0,VALID,91.6,VALID,0,VALID,24.599,VALID,338,VALID,0.601563,
2008-12-12, 03:09:05,VALID,1000.36,VALID,0,VALID,91.5466,VALID,0,VALID,24.599,VALID,359,VALID,0.39375,
2008-12-12, 03:10:05,VALID,1000.34,VALID,0,VALID,91.5008,VALID,0,VALID,24.6166,VALID,359,VALID,0.387109,
2008-12-12, 03:11:05,VALID,1000.33,VALID,0,VALID,91.4245,VALID,0.100563,VALID,24.638,VALID,359,VALID,0.371094,
2008-12-12, 03:12:05,VALID,1000.33,VALID,0,VALID,91.3558,VALID,0.100563,VALID,24.638,VALID,349,VALID,0.45,
2008-12-12, 03:13:05,VALID,1000.3,VALID,0,VALID,91.2796,VALID,0,VALID,24.6361,VALID,349,VALID,0.250391,
2008-12-12, 03:14:05,VALID,1000.33,VALID,0,VALID,91.1499,VALID,0,VALID,24.6769,VALID,335,VALID,0.3125,
2008-12-12, 03:15:05,VALID,1000.31,VALID,0,VALID,91.0736,VALID,0,VALID,24.7159,VALID,335,VALID,0.309766,
2008-12-12, 03:16:05,VALID,1000.28,VALID,0,VALID,90.9515,VALID,0.100563,VALID,24.7159,VALID,335,VALID,0.161719,
2008-12-12, 03:17:05,VALID,1000.31,VALID,0,VALID,90.86,VALID,0.100563,VALID,24.7353,VALID,335,VALID,0.233594,
2008-12-12, 03:18:05,VALID,1000.34,VALID,0,VALID,90.7455,VALID,0,VALID,24.7353,VALID,339,VALID,0.136719,
2008-12-12, 03:19:05,VALID,1000.29,VALID,0,VALID,90.6769,VALID,0,VALID,24.7548,VALID,341,VALID,0.473828,
2008-12-12, 03:20:05,VALID,1000.31,VALID,0,VALID,90.5319,VALID,0,VALID,24.7937,VALID,346,VALID,0.278125,
2008-12-12, 03:21:05,VALID,1000.3,VALID,0,VALID,90.4938,VALID,0.100563,VALID,24.8327,VALID,346,VALID,0,
2008-12-12, 03:22:05,VALID,1000.29,VALID,0,VALID,90.448,VALID,0,VALID,24.8327,VALID,346,VALID,0.425781,
2008-12-12, 03:23:05,VALID,1000.3,VALID,0,VALID,90.5396,VALID,0,VALID,24.8327,VALID,346,VALID,0.249219,
2008-12-12, 03:24:05,VALID,1000.3,VALID,0,VALID,90.4175,VALID,0,VALID,24.8132,VALID,346,VALID,0.198047,
2008-12-12, 03:25:05,VALID,1000.29,VALID,0,VALID,90.4099,VALID,0,VALID,24.7937,VALID,346,VALID,0.21875,
2008-12-12, 03:26:05,VALID,1000.26,VALID,0,VALID,90.5777,VALID,0,VALID,24.7937,VALID,346,VALID,0.239844,
2008-12-12, 03:27:05,VALID,1000.28,VALID,0,VALID,90.6006,VALID,0,VALID,24.7937,VALID,346,VALID,0.195313,
2008-12-12, 03:28:05,VALID,1000.25,VALID,0,VALID,90.7837,VALID,0,VALID,24.7743,VALID,347,VALID,0.525781,
2008-12-12, 03:29:05,VALID,1000.26,VALID,0,VALID,90.8295,VALID,0,VALID,24.7548,VALID,346,VALID,0.349219,
2008-12-12, 03:30:05,VALID,1000.25,VALID,0,VALID,90.8676,VALID,0,VALID,24.7159,VALID,343,VALID,0.529297,
2008-12-12, 03:31:05,VALID,1000.25,VALID,0,VALID,90.8066,VALID,0,VALID,24.7353,VALID,346,VALID,0.415234,
2008-12-12, 03:32:05,VALID,1000.25,VALID,0,VALID,90.7074,VALID,0,VALID,24.7548,VALID,346,VALID,0.223438,
2008-12-12, 03:33:05,VALID,1000.25,VALID,0,VALID,90.6616,VALID,0,VALID,24.7529,VALID,346,VALID,0.00859375,
2008-12-12, 03:34:04,VALID,1000.25,VALID,0,VALID,90.4404,VALID,0,VALID,24.8132,VALID,347,VALID,0.764063,
2008-12-12, 03:35:04,VALID,1000.27,VALID,0,VALID,90.1429,VALID,0,VALID,24.8716,VALID,360,VALID,1.09141,
2008-12-12, 03:36:04,VALID,1000.25,VALID,0,VALID,89.9064,VALID,0,VALID,24.93,VALID,324,VALID,0.283203,
2008-12-12, 03:37:04,VALID,1000.23,VALID,0,VALID,89.5783,VALID,0,VALID,24.969,VALID,2,VALID,0.638672,
2008-12-12, 03:38:04,VALID,1000.22,VALID,0,VALID,89.113,VALID,0,VALID,25.0469,VALID,350,VALID,1.21406,
2008-12-12, 03:39:04,VALID,1000.22,VALID,0,VALID,88.8307,VALID,0,VALID,25.0858,VALID,295,VALID,0.56875,
2008-12-12, 03:40:04,VALID,1000.22,VALID,0,VALID,88.5789,VALID,0,VALID,25.1229,VALID,356,VALID,0.671094,
2008-12-12, 03:41:04,VALID,1000.2,VALID,0,VALID,88.2814,VALID,0,VALID,25.1637,VALID,352,VALID,0.757813,
2008-12-12, 03:42:04,VALID,1000.19,VALID,0,VALID,88.1746,VALID,0,VALID,25.2416,VALID,351,VALID,0.542188,
2008-12-12, 03:43:04,VALID,1000.2,VALID,0,VALID,87.9305,VALID,0,VALID,25.3,VALID,339,VALID,0.733594,
2008-12-12, 03:44:04,VALID,1000.23,VALID,0,VALID,87.6177,VALID,0,VALID,25.3584,VALID,4,VALID,1.54492,